SNAP-3 ALICE

Last updated on Sun Apr 12 2026 00:03:55 GMT+0000 (Coordinated Universal Time)

1 40970U 15058G 26101.36712644 .00057214 00000+0 10240-2 0 9999 2 40970 64.7559 332.7305 0032032 56.0562 304.3616 15.49067932106506
UTC large
Height (km)
Speed (km/s)
/
Latitude / Longitude
Inclination (degrees)
Orbital Period (minutes)
Azimuth
Elevation
Range (km)
Doppler Factor

Next 0 passes for location: London (51.5072 / 0.1276)

Sorry there are no passes over London.
SNAP-3 ALICE